Location: Newark
(21.1200°N, 73.4000°E)
Time: 15:40:22
(UTC+00:00)

Courier 1B Rocket - Pass Details

Date: 20 January 2020
Orbit: 920 x 1202 km, 28.2° (Epoch: 24 February)

Event Time Altitude Azimuth Distance (km) Brightness Sun altitude
Rises 16:13:08 0° 269° (W) 3,564 8.7 -47.0°
Reaches altitude 10° 16:16:36 10° 251° (WSW) 2,646 7.8 -47.8°
Enters shadow 16:17:25 12° 244° (WSW) 2,483 7.6 -48.0°
Maximum altitude 16:20:41 18° 210° (SSW) 2,181 - -48.8°
Drops below altitude 10° 16:24:54 10° 170° (S) 2,741 - -49.8°
Sets 16:28:36 0° 152° (SSE) 3,746 - -50.6°
